SL-8 R/B

Satellite information

Favourite Embed

Satellite Type and Status

ROCKET BODYIN ORBIT

Key statistics

Satellite SL-8 R/B at a glance.

Uptime

16819

Days in orbit

Revolutions

≈ 14.4

Per day

Orbit

LEO

Low Earth Orbit

Inclination

74.1

Latest

Satellite identification and parameters

Extended collection of information and parameters for SL-8 R/B.

Object identification

Identified? True

Debris? False

Object name: SL-8 R/B

International designator: 1979-089B

Object number (NORAD): 11574

Object ID (CCSDS): 11574

Country: COMMONWEALTH OF INDEPENDENT STATES (CIS)

Current information (Y/N): Y

RCS size: LARGE

Orbital parameters

Period: 99.845 minutes

Inclination: 74.0695 deg

SMA: 7129.255 km

Apoapsis: 762.343 km

Periapsis: 739.896 km

RAAN: 337.5606 deg

Eccentricy: 0.00157428

Argument of periapsis: 188.4665 deg

Mean anomaly: 171.6228 deg

Mean motion: 14.42236805 rev/day

Mean motion (dot): 0.00000378 rev/day2

B* drag term: 0.00012252915 1/REarth

Two-line elements (TLE)

Creation date: Oct. 28, 2025, 2:18 a.m.

Reference frame: TEME

Reference center: EARTH

Epoch: Oct. 27, 2025, 12:01 p.m. UTC

TLE line 0: 0 SL-8 R/B

TLE line 1: 1 11574U 79089B 25300.50126264 .00000378 00000-0 12253-3 0 9991

TLE line 2: 2 11574 74.0695 337.5606 0015743 188.4665 171.6228 14.42236805416901

Live tracking on map

Real-time ground track for satellite SL-8 R/B.

In-orbit conjunctions

A list of the most updated potential collisions computed for object SL-8 R/B.

Target Orbit TCA Probability of collision Miss distance Type
THORAD AGENA D DEB LEO 2024-11-04 06:53:34 0.001190563 114.0 (m) DEBRIS
FENGYUN 1C DEB SSO 2024-09-20 07:03:23 0.001963158 105.0 (m) DEBRIS
FENGYUN 1C DEB SSO 2024-07-27 06:12:08 0.0002840495 645.0 (m) DEBRIS

Associated space launch

Military communications satellite

SL-8 R/B was lifted into orbit during the mission ‘Kosmos-3M | Strela-2M 22’, on board a Kosmos-3M space rocket.

The launch took place on Oct. 11, 1979, 4:36 p.m. from 132/2.

For more information about the launch, click the button.

Launch to space Kosmos-3M | Strela-2M 22
Kosmos-3M | Strela-2M 22

Agency: N/A

Status: Launch Successful

Launch date: Oct. 11, 1979, 4:36 p.m. UTC

Rocket: Kosmos-3M

Launch pad: 132/2

Location: Plesetsk Cosmodrome, Russian Federation

...

Latest news about this satellite

There are no fresh news available about this satellite. Check back as we update our databases every day.


Newsletter sign-up

Weekly statistics, charts and insights to help you stay on top of the space industry.